Terminal Aerodrome Forecast
Issued by NWS St Louis, MO

Home | Current Version | Previous Version | Text Only | Print | Product List | Glossary On
Versions: 1 2 3 4 5 6 7 8 9 10 11 12 13 14 15 16 17 18 19 20
555
FTUS43 KLSX 172326
TAFCOU
TAF
KCOU 172326Z 1800/1824 17014G21KT P6SM BKN035
     FM180700 23010KT P6SM VCSH OVC025
     FM181100 28012KT 6SM -SHRA OVC020
     FM181400 31016G28KT 6SM -SHRA BKN015
     FM181800 32019G39KT P6SM BKN015
     FM181900 32019G36KT P6SM BKN060=

USA.gov is the U.S. government's official web portal to all federal, state and local government web resources and services.